LOT9006 LRTM-LUKK

Flight info

Callsign LOT9006
Flight time 0h 46m
Altitude 37000
Route DOKUD DCT BUSES
Aircraft B738/M-SDE2E3FGHIRWXY/LB1

Departure

Time 2026-05-06 14:09
Airport Târgu Mureş Transilvania International Airport (LRTM)

Arrival

Time 2026-05-06 14:56
Airport Chişinău International Airport (LUKK)
Time Latitude Longitude Altitude Speed Heading
2026-05-06 13:39 46.46783 24.42309 971 ft 0 kts 307°
2026-05-06 13:57 46.46783 24.42308 971 ft 0 kts 307°
2026-05-06 13:58 46.46784 24.42307 971 ft 0 kts 307°
2026-05-06 13:58 46.46791 24.42293 971 ft 2 kts 307°
2026-05-06 13:58 46.46805 24.42266 971 ft 4 kts 307°
2026-05-06 13:59 46.46824 24.42230 971 ft 3 kts 307°
2026-05-06 13:59 46.46827 24.42225 971 ft 0 kts 307°
2026-05-06 14:06 46.46829 24.42223 971 ft 0 kts 333°
2026-05-06 14:07 46.46835 24.42228 971 ft 1 kts 59°
2026-05-06 14:07 46.46830 24.42274 971 ft 10 kts 95°
2026-05-06 14:07 46.46856 24.42461 971 ft 16 kts 74°
2026-05-06 14:07 46.46900 24.42539 971 ft 10 kts 340°
2026-05-06 14:08 46.46966 24.42501 971 ft 10 kts 345°
2026-05-06 14:08 46.46999 24.42457 971 ft 6 kts 274°
2026-05-06 14:08 46.46997 24.42423 971 ft 0 kts 251°
2026-05-06 14:08 46.46986 24.42367 971 ft 28 kts 255°
2026-05-06 14:09 46.46859 24.41702 969 ft 104 kts 255°
2026-05-06 14:09 46.46613 24.40411 994 ft 156 kts 255°
2026-05-06 14:09 46.46335 24.38959 1641 ft 153 kts 255°
2026-05-06 14:09 46.46035 24.37469 2260 ft 157 kts 253°
2026-05-06 14:10 46.45720 24.35902 2832 ft 173 kts 254°
2026-05-06 14:10 46.45383 24.34136 3491 ft 195 kts 254°
2026-05-06 14:10 46.45011 24.32188 4300 ft 209 kts 253°
2026-05-06 14:10 46.44608 24.30107 5107 ft 225 kts 253°
2026-05-06 14:11 46.44142 24.27895 5884 ft 241 kts 247°
2026-05-06 14:11 46.43262 24.25778 6642 ft 255 kts 224°
2026-05-06 14:11 46.41761 24.24378 7478 ft 267 kts 199°
2026-05-06 14:11 46.39941 24.23892 8472 ft 272 kts 181°
2026-05-06 14:12 46.38075 24.24183 9540 ft 276 kts 167°
2026-05-06 14:12 46.36357 24.25310 10573 ft 281 kts 144°
2026-05-06 14:12 46.35002 24.27358 11597 ft 287 kts 126°
2026-05-06 14:12 46.34106 24.29891 12654 ft 293 kts 112°
2026-05-06 14:13 46.33565 24.32722 13726 ft 298 kts 101°
2026-05-06 14:13 46.33600 24.35725 14657 ft 310 kts 78°
2026-05-06 14:13 46.34419 24.38607 15674 ft 316 kts 61°
2026-05-06 14:13 46.35612 24.41294 16677 ft 322 kts 56°
2026-05-06 14:14 46.36771 24.44017 17625 ft 327 kts 64°
2026-05-06 14:14 46.37627 24.47070 18547 ft 332 kts 72°
2026-05-06 14:14 46.38294 24.50261 19505 ft 336 kts 74°
2026-05-06 14:14 46.38897 24.53506 20491 ft 339 kts 75°
2026-05-06 14:15 46.39502 24.56816 21399 ft 344 kts 74°
2026-05-06 14:15 46.40122 24.60171 22296 ft 348 kts 73°
2026-05-06 14:15 46.40750 24.63518 23147 ft 352 kts 73°
2026-05-06 14:15 46.41402 24.66957 23956 ft 357 kts 73°
2026-05-06 14:16 46.42067 24.70435 24752 ft 361 kts 73°
2026-05-06 14:16 46.42734 24.73915 25464 ft 366 kts 73°
2026-05-06 14:16 46.43419 24.77483 26181 ft 371 kts 73°
2026-05-06 14:16 46.44112 24.81096 26882 ft 375 kts 72°
2026-05-06 14:17 46.44811 24.84746 27539 ft 379 kts 72°
2026-05-06 14:17 46.45510 24.88394 28181 ft 383 kts 72°
2026-05-06 14:17 46.46225 24.92142 28794 ft 388 kts 72°
2026-05-06 14:17 46.46943 24.95919 29405 ft 392 kts 72°
2026-05-06 14:18 46.47615 24.99705 29994 ft 396 kts 73°
2026-05-06 14:18 46.48250 25.03609 30559 ft 401 kts 74°
2026-05-06 14:18 46.48866 25.07553 31109 ft 405 kts 74°
2026-05-06 14:18 46.49485 25.11568 31637 ft 410 kts 74°
2026-05-06 14:19 46.50108 25.15610 32229 ft 412 kts 74°
2026-05-06 14:19 46.50742 25.19705 32735 ft 416 kts 74°
2026-05-06 14:19 46.51380 25.23811 33226 ft 421 kts 74°
2026-05-06 14:19 46.52026 25.27959 33742 ft 424 kts 74°
2026-05-06 14:20 46.52684 25.32177 34245 ft 427 kts 74°
2026-05-06 14:20 46.53360 25.36519 34710 ft 431 kts 74°
2026-05-06 14:20 46.54022 25.40764 35147 ft 434 kts 74°
2026-05-06 14:20 46.54700 25.45131 35577 ft 436 kts 74°
2026-05-06 14:21 46.55386 25.49552 35978 ft 440 kts 74°
2026-05-06 14:21 46.56072 25.53983 36393 ft 442 kts 74°
2026-05-06 14:21 46.56755 25.58411 36820 ft 446 kts 74°
2026-05-06 14:21 46.57451 25.62931 37036 ft 448 kts 74°
2026-05-06 14:22 46.58780 25.71654 37028 ft 431 kts 75°
2026-05-06 14:22 46.60085 25.80230 37031 ft 434 kts 75°
2026-05-06 14:23 46.61385 25.88798 37034 ft 433 kts 75°
2026-05-06 14:23 46.62696 25.97495 37035 ft 433 kts 75°
2026-05-06 14:24 46.63995 26.06153 37033 ft 432 kts 75°
2026-05-06 14:24 46.65269 26.14696 37028 ft 432 kts 75°
2026-05-06 14:25 46.66534 26.23231 37020 ft 430 kts 75°
2026-05-06 14:25 46.67788 26.31727 37016 ft 429 kts 75°
2026-05-06 14:26 46.69025 26.40161 36861 ft 431 kts 75°
2026-05-06 14:26 46.69655 26.44463 36560 ft 430 kts 75°
2026-05-06 14:26 46.70269 26.48686 36320 ft 428 kts 75°
2026-05-06 14:27 46.70880 26.52892 36060 ft 428 kts 75°
2026-05-06 14:27 46.71498 26.57158 35667 ft 430 kts 75°
2026-05-06 14:27 46.72115 26.61427 35275 ft 428 kts 75°
2026-05-06 14:27 46.72721 26.65634 34887 ft 427 kts 75°
2026-05-06 14:28 46.73328 26.69869 34479 ft 427 kts 76°
2026-05-06 14:28 46.73936 26.74109 34036 ft 427 kts 76°
2026-05-06 14:28 46.74538 26.78317 33588 ft 427 kts 75°
2026-05-06 14:28 46.75139 26.82536 33146 ft 427 kts 76°
2026-05-06 14:29 46.75745 26.86796 32690 ft 427 kts 76°
2026-05-06 14:29 46.76345 26.91034 32244 ft 427 kts 76°
2026-05-06 14:29 46.76946 26.95281 31793 ft 427 kts 76°
2026-05-06 14:29 46.77543 26.99524 31341 ft 428 kts 76°
2026-05-06 14:30 46.78138 27.03753 30896 ft 429 kts 76°
2026-05-06 14:30 46.78730 27.07984 30456 ft 429 kts 76°
2026-05-06 14:30 46.79327 27.12251 30000 ft 430 kts 76°
2026-05-06 14:30 46.79922 27.16528 29551 ft 431 kts 76°
2026-05-06 14:31 46.80512 27.20771 29112 ft 431 kts 76°
2026-05-06 14:31 46.81107 27.25073 28660 ft 430 kts 76°
2026-05-06 14:31 46.81695 27.29336 28216 ft 431 kts 76°
2026-05-06 14:31 46.82281 27.33589 27775 ft 432 kts 76°
2026-05-06 14:32 46.82868 27.37862 27331 ft 431 kts 76°
2026-05-06 14:32 46.83448 27.42101 26889 ft 429 kts 76°
2026-05-06 14:32 46.84026 27.46347 26433 ft 421 kts 76°
2026-05-06 14:32 46.84592 27.50511 25997 ft 419 kts 76°
2026-05-06 14:33 46.85157 27.54684 25552 ft 421 kts 76°
2026-05-06 14:33 46.85716 27.58811 25105 ft 415 kts 77°
2026-05-06 14:33 46.86266 27.62892 24598 ft 406 kts 76°
2026-05-06 14:33 46.86804 27.66904 24112 ft 397 kts 77°
2026-05-06 14:34 46.87327 27.70811 23624 ft 389 kts 77°
2026-05-06 14:34 46.87840 27.74649 23131 ft 383 kts 77°
2026-05-06 14:34 46.88341 27.78409 22653 ft 381 kts 77°
2026-05-06 14:34 46.88846 27.82195 22165 ft 378 kts 77°
2026-05-06 14:35 46.89346 27.85954 21681 ft 376 kts 77°
2026-05-06 14:35 46.89835 27.89643 21207 ft 373 kts 77°
2026-05-06 14:35 46.90326 27.93357 20735 ft 370 kts 77°
2026-05-06 14:35 46.90805 27.96993 20266 ft 367 kts 77°
2026-05-06 14:36 46.91285 28.00650 19788 ft 366 kts 78°
2026-05-06 14:36 46.91764 28.04300 19321 ft 363 kts 77°
2026-05-06 14:36 46.92279 28.07897 18849 ft 360 kts 75°
2026-05-06 14:36 46.92965 28.11354 18388 ft 358 kts 69°
2026-05-06 14:37 46.93910 28.14713 17934 ft 356 kts 64°
2026-05-06 14:37 46.94990 28.17939 17480 ft 351 kts 62°
2026-05-06 14:37 46.96114 28.21060 17024 ft 349 kts 61°
2026-05-06 14:37 46.97258 28.24190 16576 ft 348 kts 61°
2026-05-06 14:38 46.98384 28.27302 16124 ft 344 kts 61°
2026-05-06 14:38 46.99475 28.30370 15672 ft 343 kts 62°
2026-05-06 14:38 47.00565 28.33477 15222 ft 341 kts 62°
2026-05-06 14:38 47.01624 28.36523 14772 ft 337 kts 62°
2026-05-06 14:39 47.02683 28.39581 14321 ft 336 kts 62°
2026-05-06 14:39 47.03723 28.42591 13869 ft 330 kts 63°
2026-05-06 14:39 47.04750 28.45569 13417 ft 323 kts 63°
2026-05-06 14:39 47.05746 28.48457 12977 ft 318 kts 62°
2026-05-06 14:40 47.06734 28.51325 12533 ft 313 kts 62°
2026-05-06 14:40 47.07694 28.54113 12085 ft 308 kts 62°
2026-05-06 14:40 47.08660 28.56920 11628 ft 306 kts 62°
2026-05-06 14:40 47.09607 28.59676 11189 ft 303 kts 62°
2026-05-06 14:41 47.10550 28.62422 10752 ft 298 kts 62°
2026-05-06 14:41 47.11480 28.65132 10319 ft 294 kts 63°
2026-05-06 14:41 47.12387 28.67777 9903 ft 290 kts 63°
2026-05-06 14:41 47.13288 28.70412 9484 ft 287 kts 63°
2026-05-06 14:42 47.14163 28.72971 9082 ft 283 kts 63°
2026-05-06 14:42 47.15044 28.75550 8649 ft 280 kts 63°
2026-05-06 14:42 47.15906 28.78074 8212 ft 269 kts 63°
2026-05-06 14:42 47.16718 28.80457 7807 ft 257 kts 63°
2026-05-06 14:43 47.17494 28.82734 7398 ft 250 kts 63°
2026-05-06 14:43 47.18260 28.84985 6986 ft 243 kts 64°
2026-05-06 14:43 47.19002 28.87195 6670 ft 240 kts 66°
2026-05-06 14:43 47.19280 28.89567 6308 ft 240 kts 98°
2026-05-06 14:44 47.18549 28.91724 5959 ft 240 kts 136°
2026-05-06 14:44 47.17086 28.92866 5598 ft 238 kts 161°
2026-05-06 14:44 47.15640 28.93830 5314 ft 224 kts 138°
2026-05-06 14:45 47.14572 28.97599 5121 ft 195 kts 89°
2026-05-06 14:45 47.14530 28.99566 5012 ft 194 kts 98°
2026-05-06 14:45 47.14252 29.01500 4900 ft 192 kts 103°
2026-05-06 14:45 47.14276 29.03417 4784 ft 193 kts 72°
2026-05-06 14:46 47.14623 29.05302 4674 ft 193 kts 90°
2026-05-06 14:46 47.14183 29.07105 4560 ft 190 kts 136°
2026-05-06 14:46 47.13005 29.07867 4508 ft 191 kts 175°
2026-05-06 14:46 47.11663 29.08010 4439 ft 192 kts 168°
2026-05-06 14:47 47.10432 29.08666 4361 ft 189 kts 149°
2026-05-06 14:47 47.09331 29.09729 4298 ft 188 kts 143°
2026-05-06 14:47 47.08293 29.10856 4221 ft 187 kts 143°
2026-05-06 14:47 47.07241 29.12005 4149 ft 187 kts 143°
2026-05-06 14:48 47.06201 29.13129 4073 ft 186 kts 143°
2026-05-06 14:48 47.05161 29.14250 3998 ft 187 kts 143°
2026-05-06 14:48 47.04110 29.15383 3926 ft 186 kts 143°
2026-05-06 14:48 47.03067 29.16506 3860 ft 185 kts 143°
2026-05-06 14:49 47.02033 29.17619 3791 ft 186 kts 143°
2026-05-06 14:49 47.00989 29.18743 3718 ft 185 kts 143°
2026-05-06 14:49 46.99950 29.19861 3646 ft 186 kts 143°
2026-05-06 14:49 46.98902 29.20988 3576 ft 185 kts 143°
2026-05-06 14:50 46.97878 29.22088 3510 ft 184 kts 143°
2026-05-06 14:50 46.96835 29.23178 3439 ft 182 kts 148°
2026-05-06 14:50 46.95665 29.23822 3341 ft 182 kts 172°
2026-05-06 14:50 46.94428 29.23515 3235 ft 185 kts 208°
2026-05-06 14:51 46.93580 29.22124 3140 ft 190 kts 245°
2026-05-06 14:51 46.93336 29.20216 3048 ft 192 kts 263°
2026-05-06 14:51 46.93269 29.18270 2932 ft 187 kts 264°
2026-05-06 14:51 46.93223 29.16418 2829 ft 180 kts 265°
2026-05-06 14:52 46.93189 29.14627 2756 ft 171 kts 265°
2026-05-06 14:52 46.93157 29.12886 2570 ft 172 kts 265°
2026-05-06 14:52 46.93125 29.11144 2334 ft 173 kts 265°
2026-05-06 14:52 46.93093 29.09387 2104 ft 172 kts 265°
2026-05-06 14:53 46.93063 29.07705 1877 ft 161 kts 264°
2026-05-06 14:53 46.93034 29.06144 1714 ft 145 kts 264°
2026-05-06 14:53 46.93006 29.04709 1485 ft 138 kts 264°
2026-05-06 14:53 46.92979 29.03349 1309 ft 131 kts 264°
2026-05-06 14:54 46.92952 29.01994 1142 ft 133 kts 264°
2026-05-06 14:54 46.92928 29.00658 969 ft 131 kts 264°
2026-05-06 14:54 46.92901 28.99312 802 ft 132 kts 264°
2026-05-06 14:54 46.92874 28.97986 633 ft 131 kts 264°
2026-05-06 14:55 46.92848 28.96654 467 ft 129 kts 265°
2026-05-06 14:55 46.92832 28.95401 305 ft 116 kts 265°
2026-05-06 14:55 46.92805 28.94400 296 ft 71 kts 268°
2026-05-06 14:55 46.92791 28.93819 311 ft 59 kts 268°
2026-05-06 14:56 46.92794 28.93459 321 ft 11 kts 301°
2026-05-06 14:56 46.92871 28.93412 321 ft 15 kts 358°
2026-05-06 14:56 46.92950 28.93408 321 ft 8 kts 358°
2026-05-06 14:56 46.92989 28.93409 321 ft 2 kts
2026-05-06 14:57 46.93010 28.93412 320 ft 6 kts
2026-05-06 14:57 46.93078 28.93423 320 ft 13 kts
2026-05-06 14:57 46.93186 28.93446 320 ft 16 kts
2026-05-06 14:57 46.93290 28.93464 319 ft 10 kts
2026-05-06 14:58 46.93329 28.93542 318 ft 12 kts 96°
2026-05-06 14:58 46.93323 28.93601 316 ft 5 kts 99°
2026-05-06 14:58 46.93342 28.93663 315 ft 4 kts 18°
2026-05-06 14:58 46.93361 28.93668 315 ft 1 kts 10°